Time,TemperatureF,DewpointF,PressureIn,WindDirection,WindDirectionDegrees,WindSpeedMPH,WindSpeedGustMPH,Humidity,HourlyPrecipIn,Conditions,Clouds,dailyrainin,SoftwareType,DateUTC
2013-05-20 00:12:00,55.0,47.0,-100.00,North,-999,-999.0,-999.0,73,0.00,,,0.00,,2013-05-20 07:12:00,
2013-05-20 00:21:00,55.0,47.0,-100.00,North,-999,-999.0,-999.0,73,0.00,,,0.00,,2013-05-20 07:21:00,
2013-05-20 00:32:00,55.0,47.0,-100.00,North,-999,-999.0,-999.0,73,0.00,,,0.00,,2013-05-20 07:32:00,
2013-05-20 00:41:00,55.0,47.0,-100.00,North,-999,-999.0,-999.0,73,0.00,,,0.00,,2013-05-20 07:41:00,
2013-05-20 01:11:00,54.0,47.0,-100.00,North,-999,-999.0,-999.0,77,0.00,,,0.00,,2013-05-20 08:11:00,
2013-05-20 01:21:00,54.0,47.0,-100.00,North,-999,-999.0,-999.0,77,0.00,,,0.00,,2013-05-20 08:21:00,
2013-05-20 01:31:00,54.0,47.0,-100.00,North,-999,-999.0,-999.0,77,0.00,,,0.00,,2013-05-20 08:31:00,
2013-05-20 01:41:00,54.0,47.0,-100.00,North,-999,-999.0,-999.0,77,0.00,,,0.00,,2013-05-20 08:41:00,
2013-05-20 01:43:00,54.0,47.0,-100.00,North,-999,-999.0,-999.0,78,0.00,,,0.00,,2013-05-20 08:43:00,
2013-05-20 02:12:00,54.0,47.0,-100.00,North,-999,-999.0,-999.0,78,0.00,,,0.00,,2013-05-20 09:12:00,
2013-05-20 02:21:00,54.0,47.0,-100.00,North,-999,-999.0,-999.0,78,0.00,,,0.00,,2013-05-20 09:21:00,
2013-05-20 02:32:00,54.0,47.0,-100.00,North,-999,-999.0,-999.0,78,0.00,,,0.00,,2013-05-20 09:32:00,
2013-05-20 03:12:00,54.0,47.0,-100.00,North,-999,-999.0,-999.0,76,0.00,,,0.00,,2013-05-20 10:12:00,
2013-05-20 03:22:00,54.0,47.0,-100.00,North,-999,-999.0,-999.0,76,0.00,,,0.00,,2013-05-20 10:22:00,
2013-05-20 03:32:00,54.0,47.0,-100.00,North,-999,-999.0,-999.0,76,0.00,,,0.00,,2013-05-20 10:32:00,
2013-05-20 03:42:00,54.0,47.0,-100.00,North,-999,-999.0,-999.0,76,0.00,,,0.00,,2013-05-20 10:42:00,
2013-05-20 04:12:00,54.0,47.0,-100.00,North,-999,-999.0,-999.0,76,0.00,,,0.00,,2013-05-20 11:12:00,
2013-05-20 04:21:00,54.0,47.0,-100.00,North,-999,-999.0,-999.0,76,0.00,,,0.00,,2013-05-20 11:21:00,
2013-05-20 04:32:00,54.0,47.0,-100.00,North,-999,-999.0,-999.0,76,0.00,,,0.00,,2013-05-20 11:32:00,
2013-05-20 04:41:00,54.0,47.0,-100.00,North,-999,-999.0,-999.0,76,0.00,,,0.00,,2013-05-20 11:41:00,
2013-05-20 05:11:00,53.0,47.0,-100.00,North,-999,-999.0,-999.0,79,0.00,,,0.00,,2013-05-20 12:11:00,
2013-05-20 05:21:00,53.0,47.0,-100.00,North,-999,-999.0,-999.0,79,0.00,,,0.00,,2013-05-20 12:21:00,
2013-05-20 05:31:00,53.0,47.0,-100.00,North,-999,-999.0,-999.0,79,0.00,,,0.00,,2013-05-20 12:31:00,
2013-05-20 05:41:00,53.0,47.0,-100.00,North,-999,-999.0,-999.0,79,0.00,,,0.00,,2013-05-20 12:41:00,
2013-05-20 06:11:00,53.0,47.0,-100.00,North,-999,-999.0,-999.0,78,0.00,,,0.00,,2013-05-20 13:11:00,
2013-05-20 06:22:00,53.0,47.0,-100.00,North,-999,-999.0,-999.0,78,0.00,,,0.00,,2013-05-20 13:22:00,
2013-05-20 06:31:00,53.0,47.0,-100.00,North,-999,-999.0,-999.0,78,0.00,,,0.00,,2013-05-20 13:31:00,
2013-05-20 06:41:00,53.0,47.0,-100.00,North,-999,-999.0,-999.0,78,0.00,,,0.00,,2013-05-20 13:41:00,
2013-05-20 07:11:00,55.0,47.0,-100.00,North,-999,-999.0,-999.0,76,0.00,,,0.00,,2013-05-20 14:11:00,
2013-05-20 07:22:00,55.0,47.0,-100.00,North,-999,-999.0,-999.0,76,0.00,,,0.00,,2013-05-20 14:22:00,
2013-05-20 07:31:00,55.0,47.0,-100.00,North,-999,-999.0,-999.0,76,0.00,,,0.00,,2013-05-20 14:31:00,
2013-05-20 07:41:00,55.0,47.0,-100.00,North,-999,-999.0,-999.0,76,0.00,,,0.00,,2013-05-20 14:41:00,
2013-05-20 08:11:00,59.0,49.0,-100.00,North,-999,-999.0,-999.0,70,0.00,,,0.00,,2013-05-20 15:11:00,
2013-05-20 08:21:00,59.0,49.0,-100.00,North,-999,-999.0,-999.0,70,0.00,,,0.00,,2013-05-20 15:21:00,
2013-05-20 08:33:00,59.0,49.0,-100.00,North,-999,-999.0,-999.0,70,0.00,,,0.00,,2013-05-20 15:33:00,
2013-05-20 08:42:00,59.0,49.0,-100.00,North,-999,-999.0,-999.0,70,0.00,,,0.00,,2013-05-20 15:42:00,
2013-05-20 09:12:00,64.0,51.0,-100.00,North,-999,-999.0,-999.0,62,0.00,,,-99.99,,2013-05-20 16:12:00,
2013-05-20 09:22:00,64.0,51.0,-100.00,North,-999,-999.0,-999.0,62,0.00,,,-99.99,,2013-05-20 16:22:00,
2013-05-20 09:33:00,64.0,51.0,-100.00,North,-999,-999.0,-999.0,62,0.00,,,-99.99,,2013-05-20 16:33:00,
2013-05-20 09:42:00,64.0,51.0,-100.00,North,-999,-999.0,-999.0,62,0.00,,,-99.99,,2013-05-20 16:42:00,
2013-05-20 10:12:00,70.0,50.0,-100.00,North,-999,-999.0,-999.0,49,0.00,,,0.00,,2013-05-20 17:12:00,
2013-05-20 11:12:00,78.0,38.0,-100.00,North,-999,-999.0,-999.0,24,-99.99,,,-99.99,,2013-05-20 18:12:00,
2013-05-20 13:12:00,77.0,42.0,-100.00,North,-999,-999.0,-999.0,29,-99.99,,,-99.99,,2013-05-20 20:12:00,
2013-05-20 14:11:00,75.0,41.0,-100.00,North,-999,-999.0,-999.0,30,-99.99,,,0.00,,2013-05-20 21:11:00,
2013-05-20 14:21:00,75.0,41.0,-100.00,North,-999,-999.0,-999.0,30,-99.99,,,0.00,,2013-05-20 21:21:00,
2013-05-20 14:32:00,75.0,41.0,-100.00,North,-999,-999.0,-999.0,30,-99.99,,,0.00,,2013-05-20 21:32:00,
2013-05-20 15:12:00,68.0,48.0,-100.00,North,-999,-999.0,-999.0,49,-99.99,,,0.00,,2013-05-20 22:12:00,
2013-05-20 15:23:00,68.0,48.0,-100.00,North,-999,-999.0,-999.0,49,-99.99,,,0.00,,2013-05-20 22:23:00,
2013-05-20 15:33:00,68.0,48.0,-100.00,North,-999,-999.0,-999.0,49,-99.99,,,0.00,,2013-05-20 22:33:00,
2013-05-20 15:42:00,68.0,48.0,-100.00,North,-999,-999.0,-999.0,49,-99.99,,,0.00,,2013-05-20 22:42:00,
2013-05-20 16:12:00,67.0,47.0,-100.00,North,-999,-999.0,-999.0,48,0.00,,,0.00,,2013-05-20 23:12:00,
2013-05-20 16:22:00,67.0,47.0,-100.00,North,-999,-999.0,-999.0,48,0.00,,,0.00,,2013-05-20 23:22:00,
2013-05-20 16:32:00,67.0,47.0,-100.00,North,-999,-999.0,-999.0,48,0.00,,,0.00,,2013-05-20 23:32:00,
2013-05-20 16:42:00,67.0,47.0,-100.00,North,-999,-999.0,-999.0,48,0.00,,,0.00,,2013-05-20 23:42:00,
2013-05-20 17:11:00,62.0,49.0,-100.00,North,-999,-999.0,-999.0,61,-99.99,,,0.00,,2013-05-21 00:11:00,
2013-05-20 17:21:00,62.0,49.0,-100.00,North,-999,-999.0,-999.0,61,-99.99,,,0.00,,2013-05-21 00:21:00,
2013-05-20 17:31:00,62.0,49.0,-100.00,North,-999,-999.0,-999.0,61,-99.99,,,0.00,,2013-05-21 00:31:00,
2013-05-20 17:41:00,62.0,49.0,-100.00,North,-999,-999.0,-999.0,61,-99.99,,,0.00,,2013-05-21 00:41:00,
2013-05-20 18:11:00,62.0,49.0,-100.00,North,-999,-999.0,-999.0,62,0.00,,,0.00,,2013-05-21 01:11:00,
2013-05-20 18:21:00,62.0,49.0,-100.00,North,-999,-999.0,-999.0,62,0.00,,,0.00,,2013-05-21 01:21:00,
2013-05-20 18:32:00,62.0,49.0,-100.00,North,-999,-999.0,-999.0,62,0.00,,,0.00,,2013-05-21 01:32:00,
2013-05-20 18:42:00,62.0,49.0,-100.00,North,-999,-999.0,-999.0,62,0.00,,,0.00,,2013-05-21 01:42:00,
2013-05-20 19:11:00,57.0,48.0,-100.00,North,-999,-999.0,-999.0,72,-99.99,,,0.00,,2013-05-21 02:11:00,
2013-05-20 19:21:00,57.0,48.0,-100.00,North,-999,-999.0,-999.0,72,-99.99,,,0.00,,2013-05-21 02:21:00,
2013-05-20 19:32:00,57.0,48.0,-100.00,North,-999,-999.0,-999.0,72,-99.99,,,0.00,,2013-05-21 02:32:00,
2013-05-20 19:41:00,57.0,48.0,-100.00,North,-999,-999.0,-999.0,72,-99.99,,,0.00,,2013-05-21 02:41:00,
2013-05-20 20:11:00,55.0,48.0,-100.00,North,-999,-999.0,-999.0,78,0.00,,,0.00,,2013-05-21 03:11:00,
2013-05-20 20:21:00,55.0,48.0,-100.00,North,-999,-999.0,-999.0,78,0.00,,,0.00,,2013-05-21 03:21:00,
2013-05-20 20:33:00,55.0,48.0,-100.00,North,-999,-999.0,-999.0,78,0.00,,,0.00,,2013-05-21 03:33:00,
2013-05-20 20:42:00,55.0,48.0,-100.00,North,-999,-999.0,-999.0,78,0.00,,,0.00,,2013-05-21 03:42:00,
2013-05-20 21:13:00,53.0,47.0,-100.00,North,-999,-999.0,-999.0,82,0.00,,,0.00,,2013-05-21 04:13:00,
2013-05-20 21:23:00,53.0,47.0,-100.00,North,-999,-999.0,-999.0,82,0.00,,,0.00,,2013-05-21 04:23:00,
2013-05-20 21:33:00,53.0,47.0,-100.00,North,-999,-999.0,-999.0,82,0.00,,,0.00,,2013-05-21 04:33:00,
2013-05-20 21:42:00,53.0,47.0,-100.00,North,-999,-999.0,-999.0,82,0.00,,,0.00,,2013-05-21 04:42:00,